Location: Newark
(25.6108°S, 54.5803°W)
Time: 23:47:30
(UTC+00:00)

Tiros 1 - Pass Details

Date: 29 October 2020
Orbit: 630 x 664 km, 48.4° (Epoch: 29 November)

Event Time Altitude Azimuth Distance (km) Brightness Sun altitude
Rises 02:24:25 0° 233° (SW) 3,004 - -48.4°
Reaches altitude 10° 02:26:52 10° 239° (WSW) 2,082 - -48.6°
Maximum altitude 02:31:26 44° 311° (NW) 901 - -48.9°
Drops below altitude 10° 02:35:55 10° 23° (NNE) 2,043 - -49.2°
Sets 02:38:19 0° 29° (NNE) 2,941 - -49.4°
